• In Switzerland
  • List of Countries
  • For 7 days
  • Water Temperature
  • Satellite Maps
  • Weather Map
  • Weather Widgets
  • user-avatar
    Login

    Hourly Weather Serdobyne

    Today, 21 October, Sunday

    Time Temperature Precipitation Wind Pressure Humidity
    00:00 +12°C° 0 mm 3 mps 746 mmHg 79%
    01:00 +12°C° 0 mm 3 mps 746 mmHg 79%
    02:00 +12°C° 0 mm 3 mps 746 mmHg 80%
    03:00 +12°C° 0 mm 3 mps 746 mmHg 80%
    04:00 +12°C° 0 mm 3 mps 746 mmHg 81%
    05:00 +11°C° 0 mm 3 mps 746 mmHg 81%
    06:00 +12°C° 0 mm 3 mps 746 mmHg 80%
    07:00 +12°C° 0 mm 4 mps 746 mmHg 80%
    08:00 +11°C° 0 mm 4 mps 747 mmHg 75%
    09:00 +12°C° 0 mm 4 mps 747 mmHg 73%
    10:00 +12°C° 0 mm 4 mps 747 mmHg 71%
    11:00 +12°C° 0 mm 4 mps 747 mmHg 69%
    12:00 +13°C° 0 mm 4 mps 747 mmHg 68%
    13:00 +13°C° 0 mm 4 mps 747 mmHg 68%
    14:00 +13°C° 0 mm 4 mps 747 mmHg 67%
    15:00 +13°C° 0 mm 4 mps 748 mmHg 69%
    16:00 +12°C° 0 mm 4 mps 748 mmHg 70%
    17:00 +12°C° 0 mm 3 mps 748 mmHg 71%
    18:00 +12°C° 0 mm 3 mps 748 mmHg 72%
    19:00 +12°C° 0 mm 4 mps 748 mmHg 72%
    20:00 +12°C° 0 mm 4 mps 749 mmHg 72%
    21:00 +11°C° 0 mm 4 mps 749 mmHg 73%
    22:00 +11°C° 0 mm 4 mps 749 mmHg 74%
    23:00 +11°C° 0 mm 4 mps 749 mmHg 75%

    Tomorrow, 22 October, Monday

    Time Temperature Precipitation Wind Pressure Humidity
    00:00 +10°C° 0 mm 4 mps 749 mmHg 77%
    01:00 +9°C° 0 mm 3 mps 749 mmHg 80%
    02:00 +9°C° 0 mm 3 mps 749 mmHg 82%
    03:00 +9°C° 0 mm 3 mps 749 mmHg 82%
    04:00 +8°C° 0 mm 3 mps 749 mmHg 83%
    05:00 +8°C° 0 mm 3 mps 749 mmHg 83%
    06:00 +8°C° 0 mm 3 mps 749 mmHg 81%
    07:00 +8°C° 0 mm 4 mps 749 mmHg 78%
    08:00 +8°C° 0 mm 4 mps 749 mmHg 76%
    09:00 +10°C° 0 mm 4 mps 749 mmHg 75%
    10:00 +11°C° 0 mm 4 mps 749 mmHg 73%
    11:00 +12°C° 0 mm 3 mps 749 mmHg 71%
    12:00 +12°C° 0 mm 4 mps 748 mmHg 72%
    13:00 +12°C° 0 mm 4 mps 748 mmHg 73%
    14:00 +12°C° 0 mm 4 mps 748 mmHg 74%
    15:00 +12°C° 0 mm 3 mps 747 mmHg 77%
    16:00 +12°C° 0 mm 3 mps 747 mmHg 80%
    17:00 +12°C° 0 mm 2 mps 747 mmHg 84%
    18:00 +12°C° 0.1 mm 2 mps 746 mmHg 85%
    19:00 +12°C° 0.1 mm 2 mps 746 mmHg 86%
    20:00 +12°C° 0.1 mm 2 mps 746 mmHg 88%
    21:00 +12°C° 0.4 mm 2 mps 745 mmHg 88%
    22:00 +12°C° 0.4 mm 2 mps 745 mmHg 89%
    23:00 +12°C° 0.4 mm 2 mps 744 mmHg 89%

    Day after tomorrow, 23 October, Tuesday

    Time Temperature Precipitation Wind Pressure Humidity
    00:00 +12°C° 0.6 mm 2 mps 744 mmHg 89%
    01:00 +10°C° 0.6 mm 2 mps 744 mmHg 90%
    02:00 +10°C° 0.6 mm 2 mps 743 mmHg 90%
    03:00 +10°C° 0.3 mm 2 mps 743 mmHg 90%
    04:00 +10°C° 0.3 mm 3 mps 742 mmHg 90%
    05:00 +10°C° 0.3 mm 3 mps 742 mmHg 90%
    06:00 +10°C° 0 mm 4 mps 742 mmHg 87%
    07:00 +8°C° 0 mm 4 mps 742 mmHg 84%
    08:00 +8°C° 0 mm 4 mps 742 mmHg 81%
    09:00 +10°C° 0 mm 4 mps 742 mmHg 72%
    10:00 +11°C° 0 mm 4 mps 742 mmHg 64%
    11:00 +10°C° 0 mm 5 mps 742 mmHg 55%
    12:00 +12°C° 0 mm 5 mps 742 mmHg 52%
    13:00 +12°C° 0 mm 5 mps 741 mmHg 48%
    14:00 +12°C° 0 mm 5 mps 741 mmHg 45%
    15:00 +11°C° 0 mm 4 mps 741 mmHg 48%
    16:00 +10°C° 0 mm 4 mps 740 mmHg 52%
    17:00 +9°C° 0 mm 3 mps 740 mmHg 56%
    18:00 +8°C° 0 mm 3 mps 740 mmHg 58%
    19:00 +8°C° 0 mm 3 mps 740 mmHg 60%
    20:00 +8°C° 0 mm 3 mps 739 mmHg 62%
    21:00 +6°C° 0 mm 4 mps 739 mmHg 64%
    22:00 +6°C° 0 mm 4 mps 739 mmHg 65%
    23:00 +6°C° 0 mm 4 mps 738 mmHg 66%

    24 October, Wednesday

    Time Temperature Precipitation Wind Pressure Humidity
    00:00 +6°C° 0 mm 5 mps 738 mmHg 67%
    01:00 +6°C° 0 mm 5 mps 737 mmHg 68%
    02:00 +6°C° 0 mm 5 mps 736 mmHg 68%
    03:00 +6°C° 0 mm 5 mps 736 mmHg 70%
    04:00 +6°C° 0 mm 5 mps 735 mmHg 72%
    05:00 +5°C° 0 mm 5 mps 734 mmHg 73%
    06:00 +6°C° 0.5 mm 5 mps 734 mmHg 75%
    07:00 +5°C° 0.5 mm 6 mps 733 mmHg 76%
    08:00 +5°C° 0.5 mm 6 mps 732 mmHg 77%
    09:00 +6°C° 0.8 mm 7 mps 732 mmHg 77%
    10:00 +6°C° 0.8 mm 8 mps 731 mmHg 78%
    11:00 +7°C° 0.8 mm 9 mps 730 mmHg 78%
    12:00 +7°C° 0.9 mm 8 mps 730 mmHg 79%
    13:00 +9°C° 0.9 mm 8 mps 729 mmHg 79%
    14:00 +9°C° 0.9 mm 8 mps 728 mmHg 80%
    15:00 +9°C° 0.5 mm 7 mps 728 mmHg 82%
    16:00 +8°C° 0.5 mm 6 mps 728 mmHg 84%
    17:00 +8°C° 0.5 mm 5 mps 728 mmHg 86%
    18:00 +8°C° 0.9 mm 5 mps 727 mmHg 88%
    19:00 +7°C° 0.9 mm 4 mps 727 mmHg 90%
    20:00 +7°C° 0.9 mm 4 mps 727 mmHg 92%
    21:00 +7°C° 0.5 mm 4 mps 727 mmHg 91%
    22:00 +7°C° 0.5 mm 4 mps 727 mmHg 91%
    23:00 +8°C° 0.5 mm 3 mps 727 mmHg 90%

    25 October, Thursday

    Time Temperature Precipitation Wind Pressure Humidity
    00:00 +8°C° 0 mm 3 mps 726 mmHg 92%
    01:00 +7°C° 0 mm 2 mps 726 mmHg 93%
    02:00 +7°C° 0 mm 2 mps 726 mmHg 94%
    03:00 +6°C° 0.6 mm 2 mps 726 mmHg 94%
    04:00 +6°C° 0.6 mm 2 mps 726 mmHg 94%
    05:00 +6°C° 0.6 mm 2 mps 726 mmHg 94%
    06:00 +5°C° 2 mm 3 mps 725 mmHg 91%
    07:00 +5°C° 2 mm 4 mps 725 mmHg 88%
    08:00 +3°C° 2 mm 6 mps 725 mmHg 85%
    09:00 +4°C° 0.3 mm 6 mps 726 mmHg 81%
    10:00 +4°C° 0.3 mm 6 mps 726 mmHg 77%
    11:00 +4°C° 0.3 mm 6 mps 727 mmHg 73%
    12:00 +4°C° 0.1 mm 6 mps 727 mmHg 72%
    13:00 +5°C° 0.1 mm 7 mps 727 mmHg 71%
    14:00 +5°C° 0.1 mm 7 mps 728 mmHg 70%
    15:00 +5°C° 0.1 mm 7 mps 728 mmHg 72%
    16:00 +4°C° 0.1 mm 6 mps 728 mmHg 73%
    17:00 +4°C° 0.1 mm 6 mps 729 mmHg 75%
    18:00 +4°C° 0 mm 6 mps 729 mmHg 76%
    19:00 +4°C° 0 mm 6 mps 729 mmHg 77%
    20:00 +3°C° 0 mm 5 mps 729 mmHg 78%
    21:00 +3°C° 0 mm 5 mps 730 mmHg 79%
    22:00 +3°C° 0 mm 5 mps 730 mmHg 79%
    23:00 +3°C° 0 mm 5 mps 731 mmHg 80%

    26 October, Friday

    Time Temperature Precipitation Wind Pressure Humidity
    00:00 +2°C° 0 mm 5 mps 731 mmHg 81%
    01:00 +2°C° 0 mm 5 mps 731 mmHg 82%
    02:00 +1°C° 0 mm 5 mps 732 mmHg 83%
    03:00 +1°C° 0.1 mm 5 mps 732 mmHg 82%
    04:00 +1°C° 0.1 mm 5 mps 732 mmHg 81%
    05:00 +2°C° 0.1 mm 5 mps 733 mmHg 80%
    06:00 +2°C° 0 mm 6 mps 733 mmHg 78%
    07:00 +2°C° 0 mm 6 mps 734 mmHg 76%
    08:00 +2°C° 0 mm 6 mps 734 mmHg 74%
    09:00 +3°C° 0 mm 6 mps 735 mmHg 69%
    10:00 +4°C° 0 mm 6 mps 735 mmHg 64%
    11:00 +5°C° 0 mm 6 mps 736 mmHg 58%
    12:00 +5°C° 0 mm 6 mps 736 mmHg 57%
    13:00 +5°C° 0 mm 6 mps 737 mmHg 56%
    14:00 +7°C° 0 mm 6 mps 737 mmHg 54%
    15:00 +6°C° 0 mm 5 mps 738 mmHg 58%
    16:00 +5°C° 0 mm 4 mps 738 mmHg 62%
    17:00 +4°C° 0 mm 3 mps 739 mmHg 67%
    18:00 +4°C° 0 mm 3 mps 740 mmHg 70%
    19:00 +3°C° 0 mm 3 mps 740 mmHg 73%
    20:00 +3°C° 0 mm 3 mps 741 mmHg 76%
    21:00 +3°C° 0 mm 3 mps 741 mmHg 78%
    22:00 +3°C° 0 mm 4 mps 742 mmHg 80%
    23:00 +3°C° 0 mm 4 mps 743 mmHg 82%
    Show more